Back to catalog

STARLINK-5744

AliveCommunicationsVLEO
NORAD 55601·PAYLOAD·🇺🇸 United States

Launched Feb 12, 2023 from Cape Canaveral Space Force Station

Loading…

Next Passes (next 24 hours)

TLE

FreshSource: CelesTrak SupGP

Epoch: Sep 14, 2026, 20:51 UTC

1 55601C 23020AJ  26257.86923611  .00013267  00000+0  48040-3 0  2576
2 55601  43.0025  17.2679 0001563 271.4901 320.5289 15.27580620    10

Track STARLINK-5744 in real time with AllMySat

Download on the App Store